QPF
0.00 0.00 0.00 0.00 0.00 0.00 0.00 0.00 0.00 0.00 0.00 0.00 0.00 0.00 0.00 0.00 0.00 0.00 0.00 0.00 0.00 0.00 0.00 0.00 0.00 0.00 0.00 0.00 0.00 0.00 0.00 0.00 0.00 0.00 0.00 0.00 0.00 0.00 0.00 0.00 0.00 0.00 0.00
0.00 0.00 0.00 0.00 0.00 0.00 0.00 0.00 0.00 0.00 0.00 0.00 0.00 0.00 0.00 0.00 0.00 0.00 0.00 0.00 0.00 0.00 0.00 0.00 0.00 0.00 0.00 0.00 0.00 0.00 0.00 0.00 0.00 0.00 0.00 0.00 0.00 0.00 0.00 0.00 0.00 0.00 0.00
0.00 0.00 0.00 0.00 0.00 0.00 0.00 0.00 0.00 0.00 0.00 0.00 0.00 0.00 0.00 0.00 0.00 0.00 0.00 0.00 0.00 0.00 0.00 0.00 0.00 0.00 0.00 0.00 0.00 0.00 0.00 0.00 0.00 0.00 0.00 0.00 0.00 0.00 0.00 0.00 0.00 0.00 0.00
0.00 0.00 0.00 0.00 0.00 0.00 0.00 0.00 0.00 0.00 0.00 0.00 0.00 0.00 0.00 0.00 0.00 0.00 0.00 0.00 0.00 0.00 0.00 0.00 0.00 0.00 0.00 0.00 0.00 0.00 0.00 0.00 0.00 0.00 0.00 0.00 0.00 0.00 0.00 0.00 0.00 0.00 0.00
0.00 0.00 0.00 0.00 0.00 0.00 0.00 0.00 0.00 0.00 0.00 0.00 0.00 0.00 0.00 0.00 0.00 0.00 0.00 0.00 0.00 0.00 0.00 0.00 0.00 0.00 0.00 0.00 0.00 0.00 0.00 0.00 0.00 0.00 0.00 0.00 0.00 0.00 0.00 0.00 0.00 0.00 0.00
0.00 0.00 0.00 0.00 0.00 0.00 0.00 0.00 0.00 0.00 0.00 0.00 0.00 0.00 0.00 0.00 0.00 0.00 0.00 0.00 0.00 0.00 0.00 0.00 0.00 0.00 0.00 0.00 0.00 0.00 0.00 0.00 0.00 0.00 0.00 0.00 0.00 0.00 0.00 0.00 0.00 0.00 0.00
0.00 0.00 0.00 0.00 0.00 0.00 0.00 0.00 0.00 0.00 0.00 0.00 0.00 0.00 0.00 0.00 0.00 0.00 0.00 0.00 0.00 0.00 0.00 0.00 0.00 0.00 0.00 0.00 0.00 0.00 0.00 0.00 0.00 0.00 0.00 0.00 0.00 0.00 0.00 0.00 0.00 0.00 0.00
0.00 0.00 0.00 0.00 0.00 0.00 0.00 0.00 0.00 0.00 0.00 0.00 0.00 0.00 0.00 0.00 0.00 0.00 0.00 0.00 0.00 0.00 0.00 0.00 0.00 0.00 0.00 0.00 0.00 0.00 0.00 0.00 0.00 0.00 0.00 0.00 0.00 0.00 0.00 0.00 0.00 0.00 0.00
0.00 0.00 0.00 0.00 0.00 0.00 0.00 0.00 0.00 0.00 0.00 0.00 0.00 0.00 0.00 0.00 0.00 0.00 0.00 0.00 0.00 0.00 0.00 0.00 0.00 0.00 0.00 0.00 0.00 0.00 0.00 0.00 0.00 0.00 0.00 0.00 0.00 0.00 0.00 0.00 0.00 0.00 0.00
0.00 0.00 0.00 0.00 0.00 0.00 0.00 0.00 0.00 0.00 0.00 0.00 0.00 0.00 0.00 0.00 0.00 0.00 0.00 0.00 0.00 0.00 0.00 0.00 0.00 0.00 0.00 0.00 0.00 0.00 0.00 0.00 0.00 0.00 0.00 0.00 0.00 0.00 0.00 0.00 0.00 0.00 0.00
0.00 0.00 0.00 0.00 0.00 0.00 0.00 0.00 0.00 0.00 0.00 0.00 0.00 0.00 0.00 0.00 0.00 0.00 0.00 0.00 0.00 0.00 0.00 0.00 0.00 0.00 0.00 0.00 0.00 0.00 0.00 0.00 0.00 0.00 0.00 0.01 0.01 0.01 0.01 0.00 0.00 0.00 0.00
0.00 0.00 0.00 0.00 0.00 0.00 0.00 0.00 0.00 0.00 0.00 0.00 0.00 0.00 0.00 0.00 0.00 0.00 0.00 0.00 0.00 0.00 0.00 0.00 0.00 0.00 0.00 0.00 0.00 0.00 0.00 0.01 0.01 0.01 0.01 0.01 0.01 0.01 0.01 0.00 0.00 0.00 0.00
0.00 0.00 0.00 0.00 0.00 0.00 0.00 0.00 0.00 0.00 0.00 0.00 0.00 0.00 0.00 0.00 0.00 0.00 0.00 0.00 0.00 0.00 0.00 0.00 0.00 0.00 0.00 0.00 0.00 0.00 0.00 0.01 0.01 0.01 0.01 0.01 0.01 0.01 0.01 0.01 0.00 0.00 0.00
0.00 0.00 0.00 0.00 0.00 0.00 0.00 0.00 0.00 0.00 0.00 0.00 0.00 0.00 0.00 0.00 0.00 0.00 0.00 0.00 0.00 0.00 0.00 0.00 0.00 0.00 0.00 0.00 0.00 0.00 0.00 0.01 0.01 0.01 0.01 0.01 0.01 0.01 0.01 0.01 0.01 0.00 0.00
0.00 0.00 0.00 0.00 0.00 0.00 0.00 0.00 0.00 0.00 0.00 0.00 0.00 0.00 0.00 0.00 0.00 0.00 0.00 0.00 0.00 0.00 0.00 0.00 0.00 0.00 0.00 0.00 0.00 0.00 0.00 0.01 0.01 0.01 0.01 0.01 0.01 0.01 0.01 0.01 0.01 0.01 0.01
0.00 0.00 0.00 0.00 0.00 0.00 0.00 0.00 0.00 0.00 0.00 0.00 0.00 0.00 0.00 0.00 0.00 0.00 0.00 0.00 0.00 0.00 0.00 0.00 0.00 0.00 0.00 0.00 0.00 0.00 0.00 0.01 0.01 0.01 0.01 0.01 0.01 0.01 0.02 0.02 0.02 0.02 0.03
0.00 0.00 0.00 0.00 0.00 0.00 0.00 0.00 0.00 0.00 0.00 0.00 0.00 0.00 0.00 0.00 0.00 0.00 0.00 0.00 0.00 0.00 0.00 0.00 0.00 0.00 0.00 0.00 0.00 0.01 0.01 0.01 0.01 0.01 0.01 0.01 0.01 0.01 0.02 0.02 0.03 0.03 0.03
0.00 0.00 0.00 0.00 0.00 0.00 0.00 0.00 0.00 0.00 0.00 0.00 0.00 0.00 0.00 0.00 0.00 0.00 0.00 0.00 0.00 0.00 0.00 0.00 0.00 0.00 0.00 0.00 0.01 0.02 0.02 0.02 0.01 0.01 0.01 0.02 0.01 0.01 0.02 0.02 0.02 0.01 0.01
0.00 0.00 0.00 0.00 0.00 0.00 0.00 0.00 0.00 0.00 0.00 0.00 0.00 0.00 0.00 0.00 0.00 0.00 0.00 0.00 0.00 0.00 0.00 0.00 0.00 0.00 0.00 0.00 0.01 0.02 0.03 0.03 0.01 0.01 0.01 0.02 0.02 0.01 0.02 0.04 0.02 0.01 0.01
0.00 0.00 0.00 0.00 0.00 0.00 0.00 0.00 0.00 0.00 0.00 0.00 0.00 0.00 0.00 0.00 0.00 0.00 0.00 0.00 0.00 0.00 0.00 0.00 0.00 0.00 0.00 0.00 0.01 0.01 0.03 0.03 0.02 0.02 0.02 0.01 0.02 0.01 0.02 0.04 0.03 0.02 0.01
0.00 0.00 0.00 0.00 0.00 0.00 0.00 0.00 0.00 0.00 0.00 0.00 0.00 0.00 0.00 0.00 0.00 0.00 0.00 0.00 0.00 0.00 0.00 0.00 0.00 0.00 0.00 0.00 0.00 0.01 0.03 0.02 0.03 0.03 0.03 0.01 0.01 0.03 0.03 0.04 0.03 0.02 0.01
0.00 0.00 0.00 0.00 0.00 0.00 0.00 0.00 0.00 0.00 0.00 0.00 0.00 0.00 0.00 0.00 0.00 0.00 0.00 0.00 0.00 0.00 0.00 0.00 0.00 0.00 0.00 0.00 0.00 0.01 0.02 0.03 0.03 0.03 0.02 0.01 0.01 0.02 0.03 0.03 0.03 0.03 0.02
0.00 0.00 0.00 0.00 0.00 0.00 0.00 0.00 0.00 0.00 0.00 0.00 0.00 0.00 0.00 0.00 0.00 0.00 0.00 0.00 0.00 0.00 0.00 0.00 0.00 0.00 0.00 0.00 0.00 0.01 0.02 0.04 0.06 0.04 0.02 0.02 0.02 0.02 0.02 0.02 0.03 0.03 0.02
0.00 0.00 0.00 0.00 0.00 0.00 0.00 0.00 0.00 0.00 0.00 0.00 0.00 0.00 0.00 0.00 0.00 0.00 0.00 0.00 0.00 0.00 0.00 0.00 0.00 0.00 0.00 0.00 0.00 0.01 0.01 0.03 0.07 0.08 0.05 0.04 0.03 0.03 0.01 0.01 0.01 0.01 0.01
0.00 0.00 0.00 0.00 0.00 0.00 0.00 0.00 0.00 0.00 0.00 0.00 0.00 0.00 0.00 0.00 0.00 0.00 0.00 0.00 0.00 0.00 0.00 0.00 0.00 0.00 0.00 0.00 0.00 0.01 0.01 0.02 0.04 0.08 0.10 0.08 0.06 0.05 0.03 0.01 0.01 0.00 0.00
0.00 0.00 0.00 0.00 0.00 0.00 0.00 0.00 0.00 0.00 0.00 0.00 0.00 0.00 0.00 0.00 0.00 0.00 0.00 0.00 0.00 0.00 0.00 0.00 0.00 0.00 0.00 0.01 0.01 0.02 0.02 0.03 0.05 0.09 0.09 0.06 0.04 0.03 0.02 0.01 0.01 0.00 0.00
MSLP
1009.09 1009.19 1009.38 1009.68 1010.10 1010.66 1011.37 1012.19 1013.10 1014.05 1014.96 1015.77 1016.46 1016.99 1017.38 1017.66 1017.89 1018.11 1018.37 1018.71 1019.12 1019.60 1020.12 1020.65 1021.16 1021.64 1022.08 1022.50 1022.90 1023.30 1023.70 1024.07 1024.41 1024.69 1024.88 1024.97 1024.96 1024.87 1024.71 1024.55 1024.41 1024.32 1024.29
1009.31 1009.32 1009.38 1009.54 1009.80 1010.20 1010.77 1011.48 1012.32 1013.23 1014.13 1014.97 1015.68 1016.24 1016.64 1016.92 1017.12 1017.30 1017.52 1017.80 1018.17 1018.62 1019.13 1019.65 1020.18 1020.68 1021.15 1021.59 1022.01 1022.43 1022.84 1023.23 1023.60 1023.91 1024.14 1024.28 1024.31 1024.26 1024.15 1024.01 1023.87 1023.78 1023.75
1009.78 1009.72 1009.69 1009.70 1009.79 1010.02 1010.40 1010.97 1011.69 1012.51 1013.38 1014.20 1014.92 1015.50 1015.92 1016.19 1016.38 1016.53 1016.70 1016.93 1017.25 1017.66 1018.13 1018.65 1019.16 1019.66 1020.13 1020.57 1020.99 1021.40 1021.80 1022.20 1022.58 1022.92 1023.20 1023.39 1023.49 1023.51 1023.46 1023.37 1023.28 1023.20 1023.16
1010.35 1010.28 1010.18 1010.08 1010.02 1010.07 1010.27 1010.66 1011.23 1011.94 1012.73 1013.51 1014.21 1014.79 1015.21 1015.49 1015.66 1015.79 1015.92 1016.10 1016.37 1016.72 1017.15 1017.63 1018.12 1018.60 1019.05 1019.46 1019.86 1020.25 1020.63 1021.01 1021.40 1021.76 1022.07 1022.33 1022.51 1022.62 1022.65 1022.63 1022.59 1022.54 1022.50
1010.91 1010.86 1010.74 1010.56 1010.39 1010.28 1010.31 1010.52 1010.93 1011.50 1012.18 1012.89 1013.55 1014.11 1014.53 1014.80 1014.96 1015.06 1015.15 1015.29 1015.50 1015.81 1016.18 1016.62 1017.07 1017.52 1017.93 1018.32 1018.68 1019.03 1019.38 1019.74 1020.11 1020.48 1020.83 1021.15 1021.41 1021.60 1021.72 1021.79 1021.81 1021.80 1021.77
1011.36 1011.37 1011.26 1011.06 1010.80 1010.58 1010.46 1010.50 1010.75 1011.17 1011.73 1012.34 1012.94 1013.46 1013.85 1014.11 1014.25 1014.33 1014.38 1014.48 1014.64 1014.89 1015.23 1015.62 1016.03 1016.44 1016.83 1017.18 1017.50 1017.81 1018.12 1018.44 1018.79 1019.16 1019.53 1019.89 1020.22 1020.49 1020.71 1020.85 1020.94 1020.97 1020.96
1011.68 1011.76 1011.69 1011.48 1011.18 1010.87 1010.64 1010.54 1010.64 1010.91 1011.34 1011.85 1012.37 1012.82 1013.18 1013.41 1013.53 1013.58 1013.60 1013.66 1013.78 1013.99 1014.27 1014.62 1015.00 1015.38 1015.73 1016.05 1016.34 1016.61 1016.88 1017.17 1017.49 1017.85 1018.23 1018.62 1019.00 1019.34 1019.63 1019.85 1020.00 1020.08 1020.10
1011.87 1012.02 1012.00 1011.80 1011.48 1011.12 1010.79 1010.58 1010.55 1010.69 1010.99 1011.39 1011.81 1012.20 1012.51 1012.70 1012.79 1012.81 1012.81 1012.83 1012.91 1013.07 1013.32 1013.63 1013.98 1014.33 1014.66 1014.96 1015.22 1015.46 1015.70 1015.96 1016.25 1016.59 1016.97 1017.37 1017.79 1018.18 1018.54 1018.82 1019.04 1019.17 1019.22
1011.98 1012.17 1012.17 1011.99 1011.66 1011.27 1010.88 1010.59 1010.45 1010.49 1010.67 1010.96 1011.29 1011.60 1011.85 1011.99 1012.05 1012.03 1012.00 1011.98 1012.03 1012.15 1012.36 1012.64 1012.96 1013.29 1013.61 1013.89 1014.13 1014.36 1014.57 1014.81 1015.08 1015.41 1015.79 1016.20 1016.64 1017.07 1017.47 1017.81 1018.08 1018.26 1018.35
1012.05 1012.24 1012.24 1012.06 1011.73 1011.32 1010.89 1010.55 1010.34 1010.28 1010.37 1010.56 1010.81 1011.04 1011.22 1011.31 1011.32 1011.27 1011.20 1011.15 1011.15 1011.24 1011.41 1011.65 1011.94 1012.25 1012.54 1012.82 1013.06 1013.28 1013.49 1013.72 1014.00 1014.32 1014.69 1015.12 1015.57 1016.03 1016.46 1016.84 1017.15 1017.37 1017.51
1012.10 1012.25 1012.23 1012.04 1011.70 1011.27 1010.84 1010.46 1010.21 1010.09 1010.10 1010.22 1010.38 1010.54 1010.65 1010.69 1010.65 1010.56 1010.45 1010.35 1010.31 1010.34 1010.46 1010.66 1010.91 1011.19 1011.47 1011.73 1011.98 1012.21 1012.43 1012.68 1012.97 1013.31 1013.70 1014.14 1014.61 1015.08 1015.53 1015.94 1016.27 1016.53 1016.69
1012.15 1012.23 1012.16 1011.94 1011.59 1011.17 1010.73 1010.35 1010.08 1009.93 1009.89 1009.94 1010.04 1010.13 1010.17 1010.15 1010.06 1009.92 1009.75 1009.61 1009.51 1009.49 1009.55 1009.69 1009.88 1010.12 1010.37 1010.63 1010.88 1011.13 1011.38 1011.67 1011.99 1012.36 1012.78 1013.24 1013.72 1014.21 1014.67 1015.08 1015.42 1015.69 1015.87
1012.17 1012.17 1012.05 1011.79 1011.44 1011.03 1010.61 1010.25 1009.98 1009.82 1009.75 1009.75 1009.78 1009.81 1009.78 1009.70 1009.55 1009.36 1009.14 1008.94 1008.78 1008.69 1008.68 1008.74 1008.88 1009.06 1009.28 1009.51 1009.77 1010.04 1010.33 1010.66 1011.03 1011.44 1011.90 1012.39 1012.89 1013.38 1013.83 1014.24 1014.57 1014.84 1015.01
1012.16 1012.07 1011.89 1011.62 1011.27 1010.88 1010.51 1010.18 1009.93 1009.77 1009.68 1009.64 1009.62 1009.58 1009.49 1009.34 1009.13 1008.88 1008.61 1008.35 1008.12 1007.96 1007.87 1007.85 1007.91 1008.03 1008.19 1008.40 1008.65 1008.94 1009.27 1009.64 1010.07 1010.53 1011.03 1011.55 1012.06 1012.55 1012.99 1013.37 1013.68 1013.92 1014.07
1012.09 1011.94 1011.72 1011.43 1011.10 1010.76 1010.43 1010.15 1009.93 1009.78 1009.67 1009.60 1009.52 1009.41 1009.26 1009.05 1008.78 1008.47 1008.14 1007.83 1007.54 1007.30 1007.13 1007.03 1007.01 1007.05 1007.15 1007.32 1007.55 1007.84 1008.20 1008.62 1009.09 1009.60 1010.14 1010.68 1011.19 1011.67 1012.09 1012.43 1012.70 1012.89 1013.02
1011.98 1011.78 1011.54 1011.26 1010.96 1010.67 1010.39 1010.16 1009.97 1009.82 1009.70 1009.58 1009.45 1009.27 1009.05 1008.78 1008.45 1008.09 1007.72 1007.35 1007.01 1006.71 1006.47 1006.29 1006.18 1006.14 1006.17 1006.29 1006.49 1006.77 1007.14 1007.58 1008.08 1008.62 1009.18 1009.73 1010.25 1010.70 1011.08 1011.38 1011.61 1011.76 1011.85
1011.84 1011.62 1011.38 1011.12 1010.86 1010.61 1010.39 1010.19 1010.02 1009.87 1009.71 1009.54 1009.35 1009.11 1008.82 1008.49 1008.12 1007.72 1007.31 1006.91 1006.53 1006.18 1005.88 1005.63 1005.44 1005.32 1005.28 1005.33 1005.49 1005.74 1006.09 1006.53 1007.04 1007.60 1008.16 1008.70 1009.20 1009.62 1009.96 1010.22 1010.40 1010.52 1010.58
1011.72 1011.49 1011.26 1011.02 1010.79 1010.58 1010.39 1010.22 1010.05 1009.87 1009.67 1009.44 1009.18 1008.87 1008.52 1008.14 1007.73 1007.31 1006.89 1006.47 1006.07 1005.69 1005.34 1005.04 1004.78 1004.59 1004.48 1004.47 1004.56 1004.77 1005.08 1005.49 1005.99 1006.52 1007.07 1007.59 1008.05 1008.45 1008.75 1008.97 1009.12 1009.22 1009.27
1011.64 1011.42 1011.19 1010.97 1010.76 1010.57 1010.38 1010.20 1010.01 1009.79 1009.53 1009.24 1008.91 1008.54 1008.13 1007.71 1007.28 1006.85 1006.43 1006.01 1005.61 1005.23 1004.86 1004.52 1004.21 1003.96 1003.78 1003.70 1003.72 1003.86 1004.12 1004.49 1004.94 1005.43 1005.94 1006.43 1006.86 1007.22 1007.50 1007.70 1007.83 1007.93 1007.99
1011.64 1011.41 1011.17 1010.95 1010.74 1010.53 1010.33 1010.12 1009.88 1009.60 1009.29 1008.93 1008.53 1008.10 1007.66 1007.21 1006.77 1006.34 1005.94 1005.54 1005.16 1004.78 1004.40 1004.04 1003.70 1003.40 1003.17 1003.02 1002.97 1003.04 1003.24 1003.54 1003.93 1004.37 1004.83 1005.27 1005.67 1006.01 1006.27 1006.47 1006.61 1006.72 1006.82
1011.70 1011.45 1011.20 1010.95 1010.70 1010.46 1010.21 1009.95 1009.65 1009.31 1008.93 1008.51 1008.05 1007.58 1007.11 1006.65 1006.21 1005.80 1005.42 1005.05 1004.69 1004.33 1003.96 1003.59 1003.23 1002.90 1002.62 1002.41 1002.31 1002.31 1002.43 1002.67 1002.99 1003.37 1003.78 1004.19 1004.56 1004.88 1005.14 1005.35 1005.52 1005.67 1005.81
1011.80 1011.52 1011.22 1010.93 1010.63 1010.33 1010.02 1009.69 1009.33 1008.93 1008.49 1008.01 1007.52 1007.02 1006.53 1006.07 1005.64 1005.25 1004.89 1004.54 1004.21 1003.86 1003.51 1003.15 1002.78 1002.43 1002.12 1001.87 1001.71 1001.66 1001.72 1001.89 1002.15 1002.48 1002.84 1003.21 1003.57 1003.89 1004.17 1004.41 1004.62 1004.81 1005.00
1011.90 1011.56 1011.21 1010.86 1010.50 1010.13 1009.76 1009.36 1008.94 1008.48 1007.99 1007.48 1006.97 1006.45 1005.96 1005.49 1005.07 1004.69 1004.35 1004.02 1003.70 1003.37 1003.03 1002.68 1002.31 1001.95 1001.63 1001.36 1001.17 1001.07 1001.09 1001.21 1001.42 1001.70 1002.03 1002.38 1002.73 1003.06 1003.37 1003.65 1003.91 1004.15 1004.39
1011.94 1011.55 1011.14 1010.72 1010.29 1009.86 1009.43 1008.98 1008.51 1008.01 1007.50 1006.97 1006.43 1005.91 1005.42 1004.95 1004.53 1004.15 1003.81 1003.48 1003.16 1002.84 1002.51 1002.16 1001.80 1001.45 1001.12 1000.85 1000.65 1000.53 1000.52 1000.61 1000.79 1001.04 1001.35 1001.69 1002.05 1002.40 1002.74 1003.07 1003.37 1003.66 1003.94
1011.89 1011.45 1010.98 1010.50 1010.02 1009.54 1009.05 1008.57 1008.06 1007.55 1007.02 1006.49 1005.95 1005.43 1004.93 1004.45 1004.02 1003.62 1003.25 1002.91 1002.58 1002.25 1001.91 1001.56 1001.22 1000.89 1000.58 1000.32 1000.13 1000.02 1000.00 1000.08 1000.25 1000.49 1000.79 1001.13 1001.50 1001.88 1002.26 1002.62 1002.97 1003.30 1003.60
1011.73 1011.24 1010.72 1010.20 1009.68 1009.16 1008.65 1008.14 1007.63 1007.12 1006.59 1006.05 1005.52 1004.99 1004.47 1003.98 1003.51 1003.08 1002.67 1002.29 1001.92 1001.57 1001.23 1000.89 1000.56 1000.26 999.99 999.76 999.60 999.51 999.51 999.60 999.76 1000.01 1000.31 1000.66 1001.05 1001.45 1001.86 1002.26 1002.64 1002.99 1003.29
Thickness
5734 5737 5736 5730 5721 5712 5704 5696 5686 5678 5669 5662 5656 5651 5647 5643 5640 5637 5633 5627 5621 5614 5607 5602 5597 5591 5586 5580 5573 5565 5558 5552 5545 5538 5534 5533 5532 5529 5525 5520 5515 5509 5504
5722 5725 5725 5721 5715 5708 5700 5693 5685 5677 5669 5663 5657 5651 5645 5641 5638 5634 5630 5625 5619 5612 5605 5598 5593 5586 5580 5573 5567 5558 5550 5543 5536 5527 5518 5516 5520 5522 5520 5513 5506 5501 5495
5710 5712 5712 5710 5706 5701 5695 5690 5682 5675 5668 5659 5650 5644 5638 5635 5633 5632 5628 5622 5616 5610 5603 5595 5587 5581 5575 5569 5563 5555 5545 5537 5530 5524 5513 5503 5505 5507 5508 5505 5500 5493 5486
5703 5702 5702 5700 5697 5694 5690 5684 5678 5671 5664 5655 5647 5641 5638 5637 5638 5630 5623 5617 5611 5605 5598 5591 5582 5575 5569 5563 5556 5549 5541 5530 5522 5514 5511 5505 5498 5490 5485 5487 5487 5483 5477
5695 5693 5693 5692 5690 5687 5682 5677 5671 5664 5657 5650 5643 5636 5634 5632 5625 5619 5615 5610 5605 5599 5592 5585 5577 5569 5562 5556 5548 5541 5533 5527 5519 5511 5502 5494 5487 5480 5470 5466 5469 5468 5466
5686 5684 5683 5682 5680 5678 5673 5668 5662 5656 5650 5643 5637 5631 5627 5620 5614 5611 5607 5603 5597 5592 5587 5578 5571 5563 5556 5549 5540 5532 5525 5519 5512 5504 5498 5491 5482 5477 5468 5461 5457 5454 5453
5675 5673 5671 5669 5667 5666 5662 5658 5653 5647 5642 5636 5630 5625 5619 5612 5607 5603 5597 5592 5589 5585 5581 5571 5564 5557 5549 5540 5532 5524 5518 5511 5504 5499 5493 5487 5483 5475 5467 5456 5448 5443 5441
5665 5662 5660 5657 5655 5654 5651 5647 5643 5638 5633 5628 5623 5618 5612 5605 5601 5596 5590 5586 5583 5579 5572 5565 5559 5551 5542 5533 5524 5517 5511 5504 5497 5491 5484 5478 5473 5465 5459 5450 5438 5428 5425
5656 5652 5650 5647 5644 5642 5639 5636 5633 5629 5624 5619 5614 5609 5604 5599 5594 5589 5583 5580 5576 5570 5564 5559 5552 5545 5536 5527 5517 5510 5504 5495 5489 5482 5474 5467 5462 5454 5447 5440 5431 5419 5410
5645 5642 5639 5637 5635 5632 5629 5626 5622 5618 5615 5610 5605 5602 5596 5592 5587 5582 5577 5573 5568 5562 5556 5550 5544 5538 5530 5521 5511 5504 5497 5487 5482 5473 5465 5458 5450 5442 5434 5427 5419 5411 5404
5635 5631 5628 5627 5624 5622 5619 5616 5613 5609 5604 5600 5595 5591 5587 5582 5578 5574 5570 5565 5560 5554 5548 5542 5536 5530 5523 5514 5505 5498 5488 5480 5473 5465 5457 5451 5440 5431 5423 5414 5407 5400 5392
5627 5623 5619 5616 5613 5610 5608 5605 5602 5598 5594 5590 5585 5580 5576 5572 5568 5565 5561 5557 5552 5547 5541 5535 5529 5523 5516 5507 5499 5491 5482 5474 5467 5459 5449 5442 5430 5421 5412 5403 5396 5389 5383
5619 5614 5609 5605 5602 5600 5598 5595 5592 5588 5585 5580 5575 5570 5565 5561 5558 5555 5552 5547 5543 5538 5532 5526 5521 5515 5508 5500 5493 5485 5476 5468 5460 5451 5441 5433 5421 5413 5403 5394 5386 5379 5372
5610 5605 5599 5596 5593 5590 5587 5585 5582 5578 5574 5569 5564 5559 5555 5551 5548 5544 5541 5537 5533 5528 5523 5518 5513 5506 5499 5491 5484 5475 5468 5460 5452 5443 5434 5424 5414 5405 5393 5384 5376 5368 5360
5602 5596 5591 5587 5584 5581 5578 5575 5571 5567 5563 5558 5553 5548 5544 5540 5536 5531 5528 5524 5520 5517 5512 5507 5502 5496 5488 5481 5472 5465 5458 5450 5443 5435 5426 5417 5406 5396 5385 5375 5367 5358 5350
5592 5587 5583 5579 5575 5571 5567 5564 5560 5556 5552 5546 5541 5537 5533 5528 5522 5518 5515 5511 5508 5504 5500 5495 5490 5485 5480 5474 5467 5458 5448 5441 5433 5426 5417 5407 5398 5390 5380 5372 5362 5351 5341
5580 5576 5572 5568 5563 5559 5556 5551 5549 5545 5539 5534 5529 5525 5521 5515 5511 5507 5504 5500 5497 5493 5489 5485 5480 5476 5471 5465 5459 5452 5443 5434 5425 5416 5406 5397 5390 5379 5369 5362 5356 5348 5341
5568 5564 5560 5556 5551 5547 5543 5539 5535 5531 5526 5521 5516 5512 5507 5502 5498 5495 5492 5489 5487 5483 5480 5476 5472 5467 5462 5456 5450 5443 5435 5427 5419 5408 5398 5388 5379 5370 5359 5350 5342 5336 5330
5556 5552 5547 5542 5538 5533 5529 5524 5520 5516 5512 5507 5503 5499 5494 5489 5486 5482 5480 5478 5476 5473 5469 5466 5461 5457 5453 5446 5440 5433 5424 5417 5410 5400 5390 5379 5370 5361 5351 5341 5334 5327 5321
5544 5539 5534 5528 5523 5518 5514 5509 5505 5501 5498 5495 5491 5486 5482 5478 5474 5472 5470 5468 5465 5462 5458 5455 5451 5447 5442 5436 5430 5422 5414 5406 5399 5391 5382 5373 5363 5353 5344 5336 5328 5321 5314
5529 5524 5518 5511 5506 5502 5498 5494 5490 5487 5485 5482 5478 5473 5469 5465 5463 5461 5459 5456 5454 5450 5447 5444 5440 5435 5431 5426 5420 5413 5403 5396 5389 5381 5373 5365 5356 5348 5339 5331 5322 5316 5308
5512 5507 5500 5495 5491 5486 5482 5479 5476 5474 5472 5468 5464 5460 5457 5454 5452 5449 5447 5444 5441 5438 5435 5432 5429 5424 5419 5415 5409 5403 5397 5389 5380 5372 5364 5356 5348 5341 5333 5325 5317 5310 5302
5494 5488 5483 5479 5476 5470 5466 5463 5463 5460 5458 5455 5451 5447 5444 5441 5438 5436 5434 5432 5428 5425 5423 5420 5418 5414 5408 5403 5400 5394 5388 5381 5372 5364 5356 5348 5340 5333 5325 5318 5310 5302 5293
5475 5471 5466 5463 5461 5457 5452 5448 5447 5445 5443 5441 5438 5434 5431 5429 5427 5423 5420 5418 5415 5413 5411 5409 5407 5404 5398 5392 5387 5380 5374 5369 5361 5354 5347 5340 5333 5324 5316 5308 5300 5292 5284
5458 5453 5448 5447 5446 5442 5439 5434 5432 5430 5429 5427 5424 5421 5418 5417 5416 5414 5410 5408 5406 5403 5402 5400 5395 5392 5388 5384 5380 5371 5364 5355 5348 5342 5336 5329 5322 5315 5306 5298 5290 5282 5275
5442 5438 5434 5432 5430 5427 5426 5423 5419 5417 5415 5413 5411 5408 5406 5406 5404 5404 5404 5402 5399 5398 5396 5394 5390 5386 5382 5378 5373 5366 5359 5351 5343 5335 5328 5321 5313 5306 5298 5290 5282 5275 5269